BAW259 EGLL-EDDF

Flight info

Callsign BAW259
Flight time N/A
Altitude 35000
Route BPK Q295 MATCH DCT REDFA DCT TACHA DCT NOLRU DCT DIXAT DIXAT1A
Aircraft A35K/H-SDE2E3GHIJ3J4J5LM1ORWXY/LB1D1

Departure

Time 2026-05-05 08:34
Airport London Heathrow Airport (EGLL)

Arrival

Time N/A
Airport Frankfurt Main Airport (EDDF)
Time Latitude Longitude Altitude Speed Heading
2026-05-05 07:53 51.46905 -0.46412 92 ft 0 kts 56°
2026-05-05 08:22 51.46891 -0.46444 95 ft 4 kts 56°
2026-05-05 08:22 51.46879 -0.46473 91 ft 4 kts 53°
2026-05-05 08:22 51.46861 -0.46499 93 ft 4 kts
2026-05-05 08:23 51.46837 -0.46491 91 ft 3 kts 326°
2026-05-05 08:23 51.46816 -0.46468 94 ft 4 kts 326°
2026-05-05 08:23 51.46805 -0.46457 92 ft 0 kts 326°
2026-05-05 08:25 51.46811 -0.46463 92 ft 3 kts 326°
2026-05-05 08:26 51.46839 -0.46491 96 ft 7 kts 330°
2026-05-05 08:26 51.46888 -0.46541 94 ft 10 kts 324°
2026-05-05 08:26 51.46953 -0.46617 96 ft 13 kts 324°
2026-05-05 08:26 51.47025 -0.46707 96 ft 13 kts 311°
2026-05-05 08:27 51.47072 -0.46833 96 ft 14 kts 324°
2026-05-05 08:27 51.47175 -0.46873 96 ft 16 kts 355°
2026-05-05 08:27 51.47285 -0.46863 94 ft 17 kts 358°
2026-05-05 08:27 51.47410 -0.46888 95 ft 19 kts 346°
2026-05-05 08:28 51.47495 -0.46920 95 ft 10 kts 347°
2026-05-05 08:28 51.47564 -0.46892 97 ft 12 kts 44°
2026-05-05 08:28 51.47591 -0.46757 92 ft 15 kts 86°
2026-05-05 08:28 51.47594 -0.46575 95 ft 18 kts 88°
2026-05-05 08:29 51.47594 -0.46365 95 ft 21 kts 90°
2026-05-05 08:29 51.47595 -0.46133 95 ft 20 kts 90°
2026-05-05 08:29 51.47596 -0.45896 95 ft 23 kts 89°
2026-05-05 08:30 51.47597 -0.45342 92 ft 26 kts 90°
2026-05-05 08:30 51.47598 -0.45038 93 ft 28 kts 89°
2026-05-05 08:30 51.47600 -0.44712 92 ft 30 kts 89°
2026-05-05 08:30 51.47602 -0.44488 92 ft 18 kts 89°
2026-05-05 08:31 51.47596 -0.44270 96 ft 21 kts 95°
2026-05-05 08:31 51.47592 -0.44020 94 ft 24 kts 89°
2026-05-05 08:31 51.47595 -0.43747 95 ft 26 kts 89°
2026-05-05 08:31 51.47633 -0.43512 97 ft 19 kts 54°
2026-05-05 08:32 51.47661 -0.43448 96 ft 1 kts 56°
2026-05-05 08:32 51.47674 -0.43422 95 ft 8 kts 49°
2026-05-05 08:32 51.47725 -0.43399 98 ft 8 kts 345°
2026-05-05 08:32 51.47760 -0.43483 96 ft 11 kts 279°
2026-05-05 08:33 51.47762 -0.43534 95 ft 0 kts 272°
2026-05-05 08:33 51.47763 -0.43572 93 ft 23 kts 271°
2026-05-05 08:33 51.47763 -0.44304 95 ft 104 kts 270°
2026-05-05 08:34 51.47757 -0.45807 102 ft 168 kts 269°
2026-05-05 08:34 51.47700 -0.47805 666 ft 182 kts 270°
2026-05-05 08:34 51.47657 -0.49862 1579 ft 190 kts 272°
2026-05-05 08:34 51.47627 -0.52158 1949 ft 224 kts 272°
2026-05-05 08:35 51.47823 -0.54795 2393 ft 249 kts 292°
2026-05-05 08:35 51.48545 -0.57348 3318 ft 252 kts 300°
2026-05-05 08:35 51.49393 -0.59845 4216 ft 259 kts 304°
2026-05-05 08:35 51.50593 -0.61977 5037 ft 263 kts 326°
2026-05-05 08:36 51.52240 -0.63171 5680 ft 260 kts 347°
2026-05-05 08:36 51.54028 -0.63721 5959 ft 263 kts 354°
2026-05-05 08:36 51.55845 -0.63534 5996 ft 263 kts 16°
2026-05-05 08:36 51.57438 -0.62130 5997 ft 263 kts 42°
2026-05-05 08:37 51.58636 -0.59912 5993 ft 262 kts 53°
2026-05-05 08:37 51.59721 -0.57548 5994 ft 264 kts 53°
2026-05-05 08:37 51.60816 -0.55169 5995 ft 264 kts 53°
2026-05-05 08:37 51.61904 -0.52791 5995 ft 263 kts 54°
2026-05-05 08:38 51.62843 -0.50256 5998 ft 265 kts 62°
2026-05-05 08:38 51.63667 -0.47612 5999 ft 264 kts 63°
2026-05-05 08:38 51.64474 -0.44965 5989 ft 263 kts 63°
2026-05-05 08:38 51.65273 -0.42345 5994 ft 264 kts 63°
2026-05-05 08:39 51.66092 -0.39682 5994 ft 264 kts 63°
2026-05-05 08:39 51.66906 -0.37033 5992 ft 263 kts 63°
2026-05-05 08:39 51.67722 -0.34378 5993 ft 264 kts 63°
2026-05-05 08:39 51.68538 -0.31720 5996 ft 264 kts 63°
2026-05-05 08:40 51.69353 -0.29065 5991 ft 263 kts 63°
2026-05-05 08:40 51.70155 -0.26453 5995 ft 264 kts 63°
2026-05-05 08:40 51.70981 -0.23758 5996 ft 264 kts 63°
2026-05-05 08:40 51.71783 -0.21140 5987 ft 264 kts 63°
2026-05-05 08:41 51.72594 -0.18487 5996 ft 265 kts 63°
2026-05-05 08:41 51.73407 -0.15825 5997 ft 264 kts 63°
2026-05-05 08:41 51.74217 -0.13173 5992 ft 263 kts 63°
2026-05-05 08:41 51.74932 -0.10450 5998 ft 265 kts 72°
2026-05-05 08:42 51.75372 -0.07557 6216 ft 267 kts 78°
2026-05-05 08:42 51.75655 -0.04575 6924 ft 271 kts 82°
2026-05-05 08:42 51.75876 -0.01527 7925 ft 276 kts 83°
2026-05-05 08:42 51.76083 0.01578 8949 ft 281 kts 83°
2026-05-05 08:43 51.76303 0.04752 9955 ft 287 kts 82°
2026-05-05 08:43 51.76546 0.08027 10654 ft 305 kts 82°
2026-05-05 08:43 51.76825 0.11563 11075 ft 330 kts 82°
2026-05-05 08:43 51.77135 0.15376 11534 ft 352 kts 82°
2026-05-05 08:44 51.77463 0.19351 12362 ft 361 kts 82°
2026-05-05 08:44 51.77814 0.23340 13330 ft 365 kts 80°
2026-05-05 08:44 51.78342 0.27366 14283 ft 369 kts 77°
2026-05-05 08:44 51.78941 0.31441 15012 ft 377 kts 76°
2026-05-05 08:45 51.79588 0.35589 15812 ft 383 kts 76°
2026-05-05 08:45 51.80260 0.39792 16636 ft 390 kts 76°
2026-05-05 08:45 51.80948 0.44059 17419 ft 396 kts 76°
2026-05-05 08:45 51.81650 0.48421 18144 ft 405 kts 77°
2026-05-05 08:46 51.82358 0.52866 18900 ft 410 kts 77°
2026-05-05 08:46 51.83072 0.57369 19645 ft 416 kts 77°
2026-05-05 08:46 51.83790 0.61927 20477 ft 420 kts 77°
2026-05-05 08:46 51.84512 0.66525 21268 ft 424 kts 77°
2026-05-05 08:47 51.85241 0.71188 22052 ft 430 kts 77°
2026-05-05 08:47 51.85975 0.75900 22814 ft 435 kts 77°
2026-05-05 08:47 51.86708 0.80616 23550 ft 441 kts 78°
2026-05-05 08:47 51.87459 0.85465 24177 ft 446 kts 78°
2026-05-05 08:48 51.88218 0.90379 24792 ft 452 kts 78°
2026-05-05 08:48 51.88987 0.95376 25411 ft 458 kts 78°
2026-05-05 08:48 51.89760 1.00405 25980 ft 464 kts 77°
2026-05-05 08:48 51.90543 1.05519 26540 ft 470 kts 77°
2026-05-05 08:49 51.91332 1.10688 27153 ft 476 kts 77°
2026-05-05 08:49 51.92129 1.15927 27766 ft 481 kts 77°
2026-05-05 08:49 51.92931 1.21211 28358 ft 486 kts 77°
2026-05-05 08:49 51.93739 1.26558 28937 ft 491 kts 77°
2026-05-05 08:50 51.94545 1.31903 29494 ft 496 kts 77°
2026-05-05 08:50 51.95364 1.37364 30040 ft 501 kts 77°
2026-05-05 08:50 51.96189 1.42873 30516 ft 504 kts 77°
2026-05-05 08:50 51.97014 1.48411 31092 ft 505 kts 77°
2026-05-05 08:51 51.97837 1.53952 31629 ft 506 kts 77°
2026-05-05 08:51 51.98662 1.59520 32159 ft 508 kts 77°
2026-05-05 08:51 51.99483 1.65085 32771 ft 506 kts 77°
2026-05-05 08:51 52.00295 1.70607 33576 ft 500 kts 77°
2026-05-05 08:52 52.01097 1.76081 34294 ft 495 kts 78°
2026-05-05 08:52 52.01890 1.81514 34764 ft 495 kts 78°
2026-05-05 08:52 52.02685 1.86983 34954 ft 499 kts 78°
2026-05-05 08:53 52.04272 1.97957 34978 ft 499 kts 78°
2026-05-05 08:53 52.05851 2.08956 34979 ft 501 kts 78°
2026-05-05 08:54 52.07424 2.19994 34983 ft 501 kts 78°
2026-05-05 08:54 52.08978 2.30970 34983 ft 501 kts 78°
2026-05-05 08:55 52.10532 2.42035 34976 ft 501 kts 78°
2026-05-05 08:55 52.12121 2.53107 34976 ft 504 kts 76°
2026-05-05 08:56 52.14186 2.64046 34978 ft 506 kts 72°
2026-05-05 08:56 52.16388 2.74957 34981 ft 506 kts 73°
2026-05-05 08:57 52.18504 2.85836 34976 ft 506 kts 73°
2026-05-05 08:57 52.20570 2.96801 34962 ft 506 kts 74°
2026-05-05 08:58 52.22274 3.05972 34974 ft 508 kts 74°
2026-05-05 08:58 52.24088 3.17116 34982 ft 508 kts 82°
2026-05-05 08:59 52.24097 3.28509 34979 ft 499 kts 102°
2026-05-05 08:59 52.22104 3.39298 34972 ft 497 kts 112°
2026-05-05 09:00 52.19575 3.49833 34970 ft 499 kts 114°
2026-05-05 09:00 52.16975 3.60343 34968 ft 500 kts 114°
2026-05-05 09:01 52.14412 3.70809 34968 ft 500 kts 114°
2026-05-05 09:01 52.11849 3.81337 34957 ft 500 kts 114°
2026-05-05 09:02 52.09284 3.91854 34957 ft 500 kts 114°
2026-05-05 09:02 52.06701 4.02384 34952 ft 502 kts 115°
2026-05-05 09:03 52.04100 4.12939 34944 ft 503 kts 115°
2026-05-05 09:03 52.01492 4.23466 34938 ft 502 kts 115°
2026-05-05 09:04 51.98891 4.33920 34938 ft 502 kts 115°
2026-05-05 09:04 51.96260 4.44438 34939 ft 502 kts 115°
2026-05-05 09:05 51.93629 4.54917 34940 ft 502 kts 115°
2026-05-05 09:05 51.90981 4.65402 34937 ft 502 kts 116°
2026-05-05 09:06 51.88330 4.75851 34927 ft 502 kts 116°
2026-05-05 09:06 51.85686 4.86227 34931 ft 501 kts 116°
2026-05-05 09:07 51.83021 4.96643 34932 ft 501 kts 116°
2026-05-05 09:07 51.80346 5.07042 34929 ft 501 kts 116°
2026-05-05 09:08 51.77656 5.17450 34934 ft 501 kts 116°
2026-05-05 09:08 51.74963 5.27826 34928 ft 501 kts 117°
2026-05-05 09:09 51.72261 5.38185 34939 ft 501 kts 117°
2026-05-05 09:09 51.69548 5.48541 34939 ft 501 kts 117°
2026-05-05 09:10 51.66846 5.58814 34928 ft 500 kts 118°
2026-05-05 09:10 51.64131 5.69092 34939 ft 498 kts 118°
2026-05-05 09:11 51.61411 5.79334 34943 ft 497 kts 118°
2026-05-05 09:11 51.58676 5.89587 34933 ft 499 kts 118°
2026-05-05 09:12 51.55931 5.99828 34913 ft 499 kts 118°
2026-05-05 09:12 51.53179 6.10058 34911 ft 499 kts 119°
2026-05-05 09:13 51.50431 6.20226 34913 ft 499 kts 119°
2026-05-05 09:13 51.47809 6.30560 34907 ft 502 kts 116°
2026-05-05 09:14 51.45284 6.41007 34904 ft 503 kts 116°
2026-05-05 09:14 51.42724 6.51448 34897 ft 503 kts 117°
2026-05-05 09:15 51.40147 6.61865 34887 ft 503 kts 117°
2026-05-05 09:15 51.37573 6.72211 34869 ft 502 kts 116°
2026-05-05 09:16 51.34980 6.82579 34881 ft 502 kts 116°
2026-05-05 09:16 51.32373 6.92954 34883 ft 502 kts 116°
2026-05-05 09:17 51.29759 7.03298 34882 ft 501 kts 117°
2026-05-05 09:17 51.26299 7.12766 34879 ft 487 kts 136°
2026-05-05 09:18 51.21170 7.19508 34888 ft 474 kts 156°
2026-05-05 09:18 51.15325 7.24209 34873 ft 474 kts 159°
2026-05-05 09:19 51.09396 7.28881 34868 ft 475 kts 158°
2026-05-05 09:19 51.06464 7.31297 34767 ft 470 kts 157°
2026-05-05 09:19 51.03578 7.33689 34065 ft 469 kts 158°
2026-05-05 09:19 51.00668 7.36093 32972 ft 474 kts 157°
2026-05-05 09:20 50.97717 7.38519 31898 ft 479 kts 157°
2026-05-05 09:20 50.94739 7.40965 30848 ft 483 kts 156°
2026-05-05 09:20 50.91775 7.43397 29813 ft 487 kts 155°
2026-05-05 09:20 50.88755 7.45872 28726 ft 488 kts 155°
2026-05-05 09:21 50.85746 7.48340 27836 ft 486 kts 155°
2026-05-05 09:21 50.82754 7.50789 27059 ft 482 kts 155°
2026-05-05 09:21 50.79834 7.53174 25943 ft 465 kts 155°
2026-05-05 09:21 50.76977 7.55500 24406 ft 460 kts 155°
2026-05-05 09:22 50.74146 7.57801 22914 ft 454 kts 154°
2026-05-05 09:22 50.71360 7.60064 21340 ft 447 kts 154°
2026-05-05 09:22 50.68620 7.62290 19829 ft 439 kts 154°
2026-05-05 09:22 50.65923 7.64479 18412 ft 432 kts 154°
2026-05-05 09:23 50.63264 7.66630 16889 ft 425 kts 154°
2026-05-05 09:23 50.60673 7.68723 15775 ft 410 kts 154°
2026-05-05 09:23 50.58218 7.70711 15241 ft 401 kts 155°
2026-05-05 09:23 50.55728 7.72716 14997 ft 401 kts 155°
2026-05-05 09:24 50.53251 7.74705 14636 ft 396 kts 155°
2026-05-05 09:24 50.50801 7.76671 14184 ft 394 kts 155°
2026-05-05 09:24 50.48369 7.78621 13757 ft 391 kts 155°
2026-05-05 09:24 50.45953 7.80558 13274 ft 388 kts 155°
2026-05-05 09:25 50.43583 7.82587 12822 ft 387 kts 149°
2026-05-05 09:25 50.41409 7.85075 12460 ft 386 kts 144°
2026-05-05 09:25 50.39310 7.87684 12086 ft 384 kts 143°
2026-05-05 09:25 50.37228 7.90282 11733 ft 381 kts 143°
2026-05-05 09:26 50.35153 7.92866 11378 ft 379 kts 143°
2026-05-05 09:26 50.33118 7.95391 11024 ft 377 kts 143°
2026-05-05 09:26 50.31065 7.97933 10719 ft 371 kts 143°
2026-05-05 09:26 50.29077 8.00393 10531 ft 356 kts 143°
2026-05-05 09:27 50.27211 8.02711 10261 ft 328 kts 142°
2026-05-05 09:27 50.25670 8.05157 9930 ft 305 kts 131°
2026-05-05 09:27 50.24411 8.07668 9691 ft 281 kts 129°
2026-05-05 09:27 50.23217 8.10110 9669 ft 287 kts 129°